{"data":{"norad_id":63452,"epoch":"2026-09-20T10:59:31.452288Z","epoch_age_seconds":159111,"freshness":"FRESH","line1":"1 63452U 25069V   26263.45800292  .00012908  00000+0  39228-3 0  9997","line2":"2 63452  53.1612 310.0342 0000747  72.1676 287.9408 15.34418668 83331","mean_motion":15.34418668,"eccentricity":7.47e-5,"inclination_deg":53.1612,"raan_deg":310.0342,"arg_perigee_deg":72.1676,"mean_anomaly_deg":287.9408,"bstar":0.00039228,"rev_number":8333,"period_min":93.846616313456,"perigee_km":462.1367489183,"apogee_km":463.15876216078,"semimajor_km":6840.7847555395,"source":"CELESTRAK","updated_at":"2026-09-21T09:00:35.005349Z"}}